Back to catalog

STARLINK-11327

AliveCommunicationsVLEO
NORAD 61695·PAYLOAD·🇺🇸 United States

Launched Oct 30, 2024 from Vandenberg Space Force Base

Loading…

Next Passes (next 24 hours)

TLE

FreshSource: CelesTrak SupGP

Epoch: Sep 14, 2026, 21:26 UTC

1 61695C 24195J   26257.89354167 -.00004155  00000+0 -34219-4 0  2579
2 61695  53.1574 173.4499 0001068  97.1391 190.8037 15.69717721    11

Track STARLINK-11327 in real time with AllMySat

Download on the App Store